Location: Izdebnik
(49.8699°N, 19.7619°E)
Time: 20:06:01
(UTC+01:00)

ISS - Visible Passes

Search period start: 20 March 2019 00:00
Search period end: 30 March 2019 00:00
Orbit: 406 x 411 km, 51.6° (Epoch: 21 March)

Date Brightness Start Highest point End Pass type
(mag) Time Alt. Az. Time Alt. Az. Time Alt. Az.
21 Mar -1.5 18:55:33 10° SSE 18:56:05 11° SE 18:56:05 11° SE visible
22 Mar -2.7 19:38:28 10° SSW 19:40:45 29° S 19:40:45 29° S visible
23 Mar -2.4 18:47:59 10° SSW 18:50:34 22° SE 18:52:25 14° E visible
23 Mar -2.1 20:23:30 10° WSW 20:25:12 28° WSW 20:25:12 28° WSW visible
24 Mar -3.8 19:32:31 10° SW 19:35:47 60° SSE 19:36:40 41° E visible
24 Mar -0.6 21:09:06 10° W 21:09:25 12° W 21:09:25 12° W visible
25 Mar -3.2 18:41:40 10° SW 18:44:47 40° SSE 18:47:55 10° E visible
25 Mar -3.2 20:17:58 10° W 20:20:43 56° WNW 20:20:43 56° WNW visible
26 Mar -3.9 19:26:50 10° WSW 19:30:10 86° NNW 19:31:54 26° ENE visible
26 Mar -1.1 21:03:35 10° WNW 21:04:39 19° WNW 21:04:39 19° WNW visible
27 Mar -3.8 18:35:47 10° WSW 18:39:04 71° SSE 18:42:22 10° ENE visible
27 Mar -3.5 20:12:26 10° W 20:15:43 61° N 20:15:43 61° N visible
28 Mar -3.5 19:21:16 10° W 19:24:34 66° N 19:26:44 20° ENE visible
28 Mar -1.5 20:58:00 10° WNW 20:59:28 24° WNW 20:59:28 24° WNW visible
29 Mar -3.7 20:06:51 10° WNW 20:10:08 65° N 20:10:24 61° NE visible
